Weather History for North Las Vegas, NV

Change the Weather History Date:

Thursday, February 21, 2013

  Actual Average Record
Temperature  
Mean Temperature 46 °F -  
Max Temperature 54 °F 61 °F 81 °F (1958)
Min Temperature 37 °F 39 °F 12 °F (1955)
Degree Days  
Heating Degree Days 20    
Moisture  
Dew Point 16 °F    
Average Humidity 37    
Maximum Humidity 77    
Minimum Humidity 15    
Precipitation  
Precipitation 0.00 in - - ()
Sea Level Pressure  
Sea Level Pressure 30.02 in    
Wind  
Wind Speed 5 mph (NNE)    
Max Wind Speed 13 mph    
Max Gust Speed 23 mph    
Visibility 10 miles    
Events      
Averages and records for this station are not official NWS values.
T = Trace of Precipitation, MM = Missing Value Source: NWS Daily Summary

Daily Weather History Graph

Daily Weather History Graph

Search for Another Location

Airport:

Trip Planner

Search our weather history database for the weather conditions in past years. The results will help you decide how hot, cold, wet, or windy it might be!

Date:

Astronomy

Feb. 21, 2013 Rise Set
Actual Time 6:20 AM PST 5:28 PM PST
Civil Twilight 5:54 AM PST 5:54 PM PST
Nautical Twilight 5:24 AM PST 6:24 PM PST
Astronomical Twilight 4:55 AM PST 6:54 PM PST
Moon 1:51 PM PST (2/21) 3:23 AM PST (2/21)
Length of Visible Light 11h 59m
Length of Day
11h 07m
Waxing Gibbous, 84% of the Moon is Illuminated
Feb 21
Waxing Gibbous
Feb 25
Full
Mar 4
Last Quarter
Mar 11
New
Mar 19
First Quarter

Hourly Weather History & Observations

Time (PST) Temp. Windchill Dew Point Humidity Pressure Visibility Wind Dir Wind Speed Gust Speed Precip Events Conditions
12:53 AM 39.9 °F 35.1 °F 33.1 °F 77% 29.92 in 10.0 mi SE 6.9 mph - N/A   Clear
1:53 AM 39.0 °F - 32.0 °F 76% 29.92 in 10.0 mi Calm Calm - N/A   Clear
2:53 AM 39.0 °F - 28.9 °F 67% 29.92 in 10.0 mi Calm Calm - N/A   Clear
3:53 AM 39.0 °F 34.8 °F 14.0 °F 36% 29.93 in 10.0 mi North 5.8 mph - N/A   Clear
4:53 AM 39.2 °F 33.0 °F 15.8 °F 39% 29.89 in 10.0 mi North 9.2 mph - N/A   Clear
5:53 AM 37.9 °F 31.5 °F 12.9 °F 36% 29.96 in 10.0 mi NE 9.2 mph - N/A   Clear
6:53 AM 37.9 °F 35.5 °F 25.0 °F 60% 30.01 in 10.0 mi WSW 3.5 mph - N/A   Clear
7:53 AM 39.9 °F 35.8 °F 32.0 °F 73% 30.04 in 10.0 mi NNE 5.8 mph - N/A   Clear
8:53 AM 44.1 °F 42.5 °F 12.9 °F 28% 30.04 in 10.0 mi North 3.5 mph - N/A   Clear
9:53 AM 45.0 °F - 17.1 °F 33% 30.05 in 10.0 mi Calm Calm - N/A   Clear
10:53 AM 48.0 °F - 18.0 °F 30% 30.05 in 10.0 mi East 5.8 mph - N/A   Clear
11:53 AM 48.9 °F - 16.0 °F 27% 30.03 in 10.0 mi SE 3.5 mph - N/A   Clear
12:53 PM 50.0 °F - 12.0 °F 22% 30.00 in 10.0 mi Calm Calm - N/A   Clear
1:53 PM 54.0 °F - 7.0 °F 15% 30.01 in 10.0 mi North 10.4 mph - N/A   Clear
2:53 PM 54.0 °F - 6.1 °F 15% 30.00 in 10.0 mi NNW 12.7 mph 23.0 mph N/A   Clear
3:53 PM 53.1 °F - 10.0 °F 18% 30.00 in 10.0 mi East 12.7 mph 16.1 mph N/A   Scattered Clouds
4:53 PM 52.0 °F - 10.0 °F 19% 30.01 in 10.0 mi ESE 5.8 mph - N/A   Clear
5:53 PM 48.9 °F - 12.9 °F 24% 30.03 in 10.0 mi SSE 4.6 mph - N/A   Clear
6:53 PM 48.0 °F - 12.9 °F 24% 30.06 in 10.0 mi Calm Calm - N/A   Clear
7:53 PM 44.1 °F 40.8 °F 14.0 °F 30% 30.09 in 10.0 mi NNW 5.8 mph - N/A   Clear
8:53 PM 42.1 °F 40.2 °F 15.1 °F 34% 30.09 in 10.0 mi NNW 3.5 mph - N/A   Clear
9:53 PM 39.9 °F 35.8 °F 14.0 °F 35% 30.11 in 10.0 mi NW 5.8 mph - N/A   Clear
10:53 PM 39.0 °F 36.8 °F 12.9 °F 34% 30.11 in 10.0 mi NNW 3.5 mph - N/A   Clear
11:53 PM 39.9 °F 36.7 °F 9.0 °F 28% 30.12 in 10.0 mi North 4.6 mph - N/A   Clear